Regional Weather Roundup
Issued by NWS Charleston, SC

Home | Current Version | Previous Version | Text Only | Print | Product List | Glossary On
Versions: 1 2 3 4 5 6 7 8 9 10 11 12 13 14 15 16 17 18 19 20 21 22 23 24 25 26 27 28 29 30 31 32 33 34 35 36 37 38 39 40 41 42 43 44 45 46 47 48 49 50
000
ASUS42 KCHS 210025
RWRCHS

REGIONAL WEATHER ROUNDUP
NATIONAL WEATHER SERVICE CHARLESTON SC
800 PM EDT WED AUG 20 2014

NOTE: "FAIR" INDICATES FEW OR NO CLOUDS BELOW 12,000 FEET WITH NO
SIGNIFICANT WEATHER AND/OR OBSTRUCTIONS TO VISIBILITY.

NOT ALL STATIONS ARE QUALITY CONTROLLED BY THE NATIONAL
WEATHER SERVICE. USE DATA WITH CAUTION...ESPECIALLY
DEWPOINT OBSERVATIONS.

SCZ027-030-031-034>040-042>050-210100-
...SOUTH CAROLINA...

CITY           SKY/WX    TMP DP  RH WIND       PRES   REMARKS
N CHARLESTON   PTCLDY    90  71  53 W3        29.98R HX  96
6HR MIN TEMP:  90; 6HR MAX TEMP:  96;

WATERFRONT PRK   N/A     86 N/A N/A SW7         N/A
FORT JOHNSON   NOT AVBL
MOUNT PLEASANT FAIR      84  79  84 CALM      29.98R HX  96
JOHNS ISLAND   CLEAR     84  81  89 CALM      29.99R HX  98
PINOPOLIS        N/A     93  75  55 MISG      29.88S HX 104
MONCKS CORNER    N/A     82  81  94 CALM      29.98R HX  95
SUMMERVILLE    FAIR      82  79  89 CALM      30.00R HX  93
BEAUFORT MCAS  PTCLDY    87  73  62 NW3       29.98R HX  94
6HR MIN TEMP:  87; 6HR MAX TEMP:  96;

BEAUFORT ARPT  FAIR      86  79  79 S3        29.98R HX  99
HILTON HEAD IS PTCLDY    86  77  74 S7        30.00  HX  97
GEORGETOWN     NOT AVBL
WALTERBORO     CLEAR     86  72  62 CALM      30.00R HX  92
ORANGEBURG     MOCLDY    85  74  69 CALM      29.98R HX  92
6HR MIN TEMP:  85; 6HR MAX TEMP:  95;

BARNWELL       FAIR      84  72  65 W7        30.00R
AIKEN          FAIR      82  72  69 SW7       30.04S
MANNING        FAIR      82  82 100 CALM      29.97S HX  97
KINGSTREE      NOT AVBL
COLUMBIA       MOCLDY    87  72  60 CALM      29.96S HX  93
6HR MIN TEMP:  87; 6HR MAX TEMP:  97;

SUMTER         CLEAR     87  75  68 SW5       29.96R HX  96
6HR MIN TEMP:  87; 6HR MAX TEMP:  94;

FLORENCE       CLEAR     85  73  67 E7        29.96R HX  91
6HR MIN TEMP:  85; 6HR MAX TEMP:  93;

MYRTLE BEACH   CLEAR     84  73  70 CALM      29.97R HX  91
N MYRTLE BEACH CLEAR     82  76  81 SE3       29.97R
6HR MIN TEMP:  77; 6HR MAX TEMP:  86; 6HR PCP:  0.06;


$$

GAZ063-065-086>088-099>101-113>116-118-119-134-136>141-150-210100-
...GEORGIA...

CITY           SKY/WX    TMP DP  RH WIND       PRES   REMARKS
SAVANNAH ARPT  PTCLDY    89  74  60 SW5       29.99R HX  98
6HR MIN TEMP:  89; 6HR MAX TEMP:  96;

HUNTER AAF     CLEAR     87  75  66 SW2       29.98R HX  96
6HR MIN TEMP:  87; 6HR MAX TEMP:  95;

FORT STEWART   CLEAR     88  73  59 SW6       29.99R HX  96
6HR MIN TEMP:  88; 6HR MAX TEMP:  96;

STATESBORO     NOT AVBL
SYLVANIA       MOCLDY    83  73  71 W8G16     30.04R THUNDER
CLAXTON        TSTM      82  73  74 NW8G22    30.03R
THOMSON        CLOUDY    77  77 100 CALM      30.08R
AUGUSTA-BUSH   CLOUDY    78  68  71 CALM      29.99R
6HR MIN TEMP:  78; 6HR MAX TEMP:  96; 6HR PCP: TRACE;

AUGUSTA-DANIEL CLOUDY    81  67  62 VRB6      30.01S
SWAINSBORO     FAIR      82  72  69 W6        30.05S
VIDALIA        RAIN      77  72  83 W5        30.05R
ALMA           PTCLDY    82  68  62 NW12      30.04R
6HR MIN TEMP:  82; 6HR MAX TEMP:  95;

WAYCROSS       MOCLDY    89  73  59 NW15G22   30.03R HX  98
JESUP            N/A     88  77  70 CALM      30.01S HX 100
BRUNSWICK      CLEAR     82  73  74 W3        30.02R
SAINT SIMONS   CLEAR     86  77  74 S5        30.00R HX  97
6HR MIN TEMP:  86; 6HR MAX TEMP:  95;


$$

SCZ027-028-034-036>038-045-046-048>050-GAZ119-141-210100-
...LAKE AND SUPPLEMENTAL COASTAL OBSERVATIONS...

STATION/POSITION TIME  TEMP    WIND        PRES    WAVE   SWELL
                       AIR SEA DIR/SP/G            HT/PER HT/PER/DIR
                 (UTC) (F)     (DEG/KT/KT) (MB)    (FT/S) (FT/S/D)
UPR LAKE MARION  NOT AVBL
WINYAH BAY       2300   88     220/  7     1014.0S
LAKE MURRAY      2300   89        CALM     1014.2R
ACE BASIN NERRS  2300   92        CALM     1015.0S
FORT PULASKI     0000   85     180/  3/  6 1015.9R
SAPELO ISLAND    2300   93     260/  6     1016.0F

$$

ANZ835-935-AMZ111-154-330-350-352-354-374-450-454-472-210100-
...C-MAN AND BUOY OBSERVATIONS...

STATION/POSITION TIME  TEMP    WIND        PRES    WAVE   SWELL
                       AIR SEA DIR/SP/G            HT/PER HT/PER/DIR
                 (UTC) (F)     (DEG/KT/KT) (MB)    (FT/S) (FT/S/D)
FOLLY BEACH CMAN 0000   85     230/  9/ 11 1015.4R
BUOY 41004       0000   83 84  220/ 14/ 16 1014.1F   3/ 5   2/11
BUOY 41008       0000   85 85  200/ 14/ 16 1015.6R   1/ 8
5E ST. MARYS GA  0000      83                N/A     1/ 8
FRYING PAN BUOY  NOT AVBL
BUOY 41025       0000   77     310/  4/  6 1015.3R   2/ 7   2/190/ 7
CAPE LOOKOUT NC  0000   81     230/  4/  5 1015.1R
BUOY 41002       NOT AVBL
BUOY 41010       0000   85 85  170/  6/  6 1017.9F   2/ 4   2/230/ 4
BUOY 41012       NOT AVBL
ST AUGUSTINE FL  0000   81     170/  8/  9 1018.0R
CAPERS NEARSHORE 2300   86     240/ 12/ 14   N/A
FRIPP NEARSHORE  NOT AVBL


$$


USA.gov is the U.S. government's official web portal to all federal, state and local government web resources and services.